• Em Portugal
  • Lista de países
  • Para 7 dias
  • Temperatura da água
  • Mapas de satélite
  • Mapa do tempo
  • Widgets de tempo
  • user-avatar
    Iniciar Sessão

    Previsão horária em Slobozia

    Hoje, 18 Setembro, Terça-feira

    Tempo Temperatura Precipitação Vento Pressão Humidade
    00:00 +18°C° 0 mm 1 m/s 767 mmHg 52%
    01:00 +16°C° 0 mm 1 m/s 767 mmHg 54%
    02:00 +16°C° 0 mm 1 m/s 767 mmHg 60%
    03:00 +16°C° 0 mm 1 m/s 767 mmHg 62%
    04:00 +15°C° 0 mm 1 m/s 767 mmHg 64%
    05:00 +15°C° 0 mm 1 m/s 767 mmHg 66%
    06:00 +18°C° 0 mm 1 m/s 767 mmHg 62%
    07:00 +19°C° 0 mm 1 m/s 767 mmHg 58%
    08:00 +20°C° 0 mm 1 m/s 767 mmHg 53%
    09:00 +22°C° 0 mm 1 m/s 767 mmHg 48%
    10:00 +23°C° 0 mm 1 m/s 767 mmHg 44%
    11:00 +25°C° 0 mm 1 m/s 767 mmHg 39%
    12:00 +25°C° 0 mm 1 m/s 767 mmHg 37%
    13:00 +26°C° 0 mm 1 m/s 767 mmHg 35%
    14:00 +27°C° 0 mm 1 m/s 766 mmHg 33%
    15:00 +26°C° 0 mm 1 m/s 766 mmHg 33%
    16:00 +26°C° 0 mm 1 m/s 766 mmHg 34%
    17:00 +26°C° 0 mm 1 m/s 766 mmHg 35%
    18:00 +24°C° 0 mm 1 m/s 766 mmHg 39%
    19:00 +23°C° 0 mm 2 m/s 766 mmHg 44%
    20:00 +20°C° 0 mm 2 m/s 766 mmHg 48%
    21:00 +20°C° 0 mm 2 m/s 766 mmHg 51%
    22:00 +19°C° 0 mm 2 m/s 766 mmHg 54%
    23:00 +18°C° 0 mm 3 m/s 767 mmHg 57%

    Amanhã, 19 Setembro, Quarta-feira

    Tempo Temperatura Precipitação Vento Pressão Humidade
    00:00 +18°C° 0 mm 2 m/s 767 mmHg 59%
    01:00 +18°C° 0 mm 2 m/s 767 mmHg 60%
    02:00 +17°C° 0 mm 2 m/s 767 mmHg 62%
    03:00 +17°C° 0 mm 2 m/s 767 mmHg 62%
    04:00 +18°C° 0 mm 1 m/s 767 mmHg 63%
    05:00 +16°C° 0 mm 1 m/s 767 mmHg 64%
    06:00 +19°C° 0 mm 1 m/s 767 mmHg 59%
    07:00 +20°C° 0 mm 1 m/s 767 mmHg 55%
    08:00 +21°C° 0 mm 1 m/s 767 mmHg 51%
    09:00 +23°C° 0 mm 1 m/s 767 mmHg 45%
    10:00 +25°C° 0 mm 1 m/s 767 mmHg 40%
    11:00 +26°C° 0 mm 2 m/s 767 mmHg 35%
    12:00 +27°C° 0 mm 2 m/s 767 mmHg 33%
    13:00 +28°C° 0 mm 2 m/s 766 mmHg 31%
    14:00 +29°C° 0 mm 2 m/s 766 mmHg 30%
    15:00 +28°C° 0 mm 2 m/s 766 mmHg 31%
    16:00 +28°C° 0 mm 2 m/s 766 mmHg 32%
    17:00 +28°C° 0 mm 2 m/s 766 mmHg 34%
    18:00 +26°C° 0 mm 2 m/s 766 mmHg 38%
    19:00 +24°C° 0 mm 2 m/s 766 mmHg 42%
    20:00 +21°C° 0 mm 2 m/s 766 mmHg 46%
    21:00 +21°C° 0 mm 2 m/s 766 mmHg 48%
    22:00 +20°C° 0 mm 2 m/s 766 mmHg 50%
    23:00 +19°C° 0 mm 2 m/s 766 mmHg 52%

    Depois de amanhã, 20 Setembro, Quinta-feira

    Tempo Temperatura Precipitação Vento Pressão Humidade
    00:00 +20°C° 0 mm 1 m/s 766 mmHg 53%
    01:00 +20°C° 0 mm 1 m/s 766 mmHg 54%
    02:00 +19°C° 0 mm 1 m/s 766 mmHg 55%
    03:00 +19°C° 0 mm 1 m/s 766 mmHg 55%
    04:00 +19°C° 0 mm 1 m/s 766 mmHg 56%
    05:00 +18°C° 0 mm 1 m/s 766 mmHg 57%
    06:00 +20°C° 0 mm 1 m/s 766 mmHg 53%
    07:00 +21°C° 0 mm 1 m/s 766 mmHg 49%
    08:00 +23°C° 0 mm 1 m/s 766 mmHg 46%
    09:00 +24°C° 0 mm 1 m/s 766 mmHg 42%
    10:00 +26°C° 0 mm 1 m/s 766 mmHg 37%
    11:00 +28°C° 0 mm 1 m/s 766 mmHg 33%
    12:00 +29°C° 0 mm 1 m/s 765 mmHg 31%
    13:00 +29°C° 0 mm 1 m/s 765 mmHg 30%
    14:00 +30°C° 0 mm 1 m/s 765 mmHg 28%
    15:00 +30°C° 0 mm 1 m/s 764 mmHg 29%
    16:00 +29°C° 0 mm 1 m/s 764 mmHg 31%
    17:00 +29°C° 0 mm 1 m/s 764 mmHg 32%
    18:00 +27°C° 0 mm 1 m/s 764 mmHg 35%
    19:00 +25°C° 0 mm 1 m/s 764 mmHg 38%
    20:00 +24°C° 0 mm 1 m/s 764 mmHg 42%
    21:00 +23°C° 0 mm 1 m/s 764 mmHg 43%
    22:00 +22°C° 0 mm 1 m/s 764 mmHg 44%
    23:00 +22°C° 0 mm 1 m/s 764 mmHg 46%

    21 Setembro, Sexta-feira

    Tempo Temperatura Precipitação Vento Pressão Humidade
    00:00 +22°C° 0 mm 1 m/s 764 mmHg 47%
    01:00 +21°C° 0 mm 1 m/s 764 mmHg 47%
    02:00 +21°C° 0 mm 1 m/s 764 mmHg 48%
    03:00 +21°C° 0 mm 1 m/s 764 mmHg 49%
    04:00 +20°C° 0 mm 1 m/s 764 mmHg 50%
    05:00 +20°C° 0 mm 1 m/s 764 mmHg 51%
    06:00 +21°C° 0 mm 1 m/s 764 mmHg 48%
    07:00 +23°C° 0 mm 1 m/s 764 mmHg 45%
    08:00 +24°C° 0 mm 2 m/s 764 mmHg 42%
    09:00 +26°C° 0 mm 2 m/s 764 mmHg 38%
    10:00 +28°C° 0 mm 2 m/s 764 mmHg 33%
    11:00 +29°C° 0 mm 3 m/s 764 mmHg 29%
    12:00 +30°C° 0 mm 3 m/s 763 mmHg 28%
    13:00 +30°C° 0 mm 3 m/s 763 mmHg 26%
    14:00 +31°C° 0 mm 3 m/s 763 mmHg 25%
    15:00 +30°C° 0 mm 3 m/s 762 mmHg 26%
    16:00 +30°C° 0 mm 3 m/s 762 mmHg 28%
    17:00 +29°C° 0 mm 3 m/s 762 mmHg 30%
    18:00 +27°C° 0 mm 3 m/s 762 mmHg 33%
    19:00 +25°C° 0 mm 2 m/s 762 mmHg 36%
    20:00 +24°C° 0 mm 2 m/s 762 mmHg 39%
    21:00 +23°C° 0 mm 2 m/s 762 mmHg 40%
    22:00 +22°C° 0 mm 1 m/s 762 mmHg 42%
    23:00 +22°C° 0 mm 1 m/s 762 mmHg 43%

    22 Setembro, Sábado

    Tempo Temperatura Precipitação Vento Pressão Humidade
    00:00 +22°C° 0 mm 1 m/s 762 mmHg 44%
    01:00 +21°C° 0 mm 1 m/s 761 mmHg 45%
    02:00 +21°C° 0 mm 1 m/s 761 mmHg 46%
    03:00 +20°C° 0 mm 1 m/s 761 mmHg 47%
    04:00 +20°C° 0 mm 1 m/s 761 mmHg 48%
    05:00 +20°C° 0 mm 1 m/s 761 mmHg 49%
    06:00 +21°C° 0 mm 1 m/s 761 mmHg 46%
    07:00 +23°C° 0 mm 1 m/s 761 mmHg 43%
    08:00 +24°C° 0 mm 1 m/s 761 mmHg 41%
    09:00 +26°C° 0 mm 2 m/s 761 mmHg 37%
    10:00 +27°C° 0 mm 3 m/s 760 mmHg 34%
    11:00 +29°C° 0 mm 3 m/s 760 mmHg 31%
    12:00 +30°C° 0 mm 4 m/s 760 mmHg 30%
    13:00 +30°C° 0 mm 4 m/s 759 mmHg 28%
    14:00 +32°C° 0 mm 5 m/s 759 mmHg 27%
    15:00 +30°C° 0 mm 4 m/s 758 mmHg 30%
    16:00 +29°C° 0 mm 4 m/s 758 mmHg 34%
    17:00 +28°C° 0 mm 4 m/s 758 mmHg 37%
    18:00 +26°C° 0 mm 4 m/s 758 mmHg 45%
    19:00 +23°C° 0 mm 4 m/s 758 mmHg 53%
    20:00 +21°C° 0 mm 4 m/s 758 mmHg 61%
    21:00 +21°C° 0 mm 4 m/s 758 mmHg 63%
    22:00 +21°C° 0 mm 4 m/s 758 mmHg 65%
    23:00 +20°C° 0 mm 4 m/s 758 mmHg 67%

    23 Setembro, Domingo

    Tempo Temperatura Precipitação Vento Pressão Humidade
    00:00 +19°C° 0 mm 6 m/s 758 mmHg 67%
    01:00 +17°C° 0 mm 7 m/s 758 mmHg 67%
    02:00 +16°C° 0 mm 8 m/s 759 mmHg 67%
    03:00 +13°C° 0.6 mm 9 m/s 759 mmHg 70%
    04:00 +12°C° 0.6 mm 9 m/s 759 mmHg 73%
    05:00 +11°C° 0.6 mm 10 m/s 760 mmHg 76%
    06:00 +11°C° 1 mm 10 m/s 760 mmHg 75%
    07:00 +11°C° 1 mm 9 m/s 760 mmHg 74%
    08:00 +11°C° 1 mm 9 m/s 760 mmHg 73%
    09:00 +12°C° 0 mm 9 m/s 761 mmHg 69%
    10:00 +13°C° 0 mm 10 m/s 761 mmHg 64%
    11:00 +13°C° 0 mm 10 m/s 761 mmHg 60%
    12:00 +14°C° 0 mm 10 m/s 761 mmHg 57%
    13:00 +15°C° 0 mm 9 m/s 761 mmHg 54%
    14:00 +16°C° 0 mm 9 m/s 761 mmHg 51%
    15:00 +16°C° 0 mm 8 m/s 761 mmHg 49%
    16:00 +16°C° 0 mm 8 m/s 761 mmHg 47%
    17:00 +16°C° 0 mm 7 m/s 761 mmHg 45%
    18:00 +15°C° 0 mm 6 m/s 761 mmHg 49%
    19:00 +14°C° 0 mm 4 m/s 761 mmHg 53%
    20:00 +13°C° 0 mm 3 m/s 761 mmHg 57%
    21:00 +13°C° 0 mm 4 m/s 761 mmHg 58%
    22:00 +12°C° 0 mm 4 m/s 761 mmHg 59%
    23:00 +12°C° 0 mm 4 m/s 761 mmHg 61%
    Mostrar mais